Miscellaneous Local Product
Issued by NWS North Platte, NE

Home | Current Version | Previous Version | Text Only | Print | Product List | Glossary On
Versions: 1 2 3 4 5 6 7 8 9 10 11 12 13 14 15 16 17 18 19 20 21 22 23 24 25 26 27 28 29 30 31 32 33 34 35 36 37 38 39 40 41 42 43 44 45 46 47 48 49 50
000
AXUS43 KLBF 270210
MISLBF


WESTERN AND NORTH CENTRAL NEBRASKA HOURLY WEATHER ROUNDUP
NATIONAL WEATHER SERVICE NORTH PLATTE NE
900 PM CDT MON JUN 26 2017

NOTE: "FAIR" INDICATES FEW OR NO CLOUDS BELOW 12,000 FEET WITH NO
SIGNIFICANT WEATHER AND/OR OBSTRUCTIONS TO VISIBILITY.

NOTE: STATIONS NOT REPORTING VARIABLES SUCH AS SKY/WEATHER OR
PRESSURE ARE PROVIDED BY RAWS AND APRS NETWORKS AND ARE NOT UNDER
NATIONAL WEATHER SERVICE QUALITY CONTROL.

...OBSERVATIONS IN AND NEAR THE EASTERN PANHANDLE OF NEBRASKA...

CITY           SKY/WX    TMP DP  RH WIND       PRES   REMARKS
PINE RIDGE     CLEAR     72  44  36 E8        30.06F
GORDON         FAIR      71  41  34 SE9       30.08F
CHADRON        CLEAR     76  39  26 SE9       30.03F
ALLIANCE       CLEAR     72  37  28 SE15      30.07F
SIDNEY         CLEAR     73  48  41 SE17      30.12S
CRESCENT LAKE    N/A     73  40  29 SE9G16      N/A
$$

...OBSERVATIONS IN NORTHERN NEBRASKA AND FAR SOUTHERN SOUTH DAKOTA...

CITY           SKY/WX    TMP DP  RH WIND       PRES   REMARKS
WINNER         FAIR      66  40  38 SE7       30.11F
VALENTINE      PTCLDY    73  37  27 E13       30.11F
THEDFORD       PTCLDY    71  41  33 E8        30.14S
AINSWORTH      CLOUDY    67  43  41 SE7       30.14F
O`NEILL        CLEAR     65  42  42 SE3       30.14S
ORD            CLOUDY    67  44  43 E6        30.12S
BROKEN BOW     PTCLDY    68  46  45 E6        30.13S
VALENTINE NWR    N/A     70  44  38 E6G13       N/A
HALSEY           N/A     72  40  30 E8          N/A
BUTTE            N/A     66  40  39 E3          N/A
CHAMBERS         N/A     64  38  38 CALM        N/A
EWING            N/A     63  50  61 CALM        N/A
$$

...OBSERVATIONS IN SOUTHWEST NEBRASKA AND FAR NORTHEAST COLORADO...

CITY           SKY/WX    TMP DP  RH WIND       PRES   REMARKS
WRAY           FAIR      73  55  53 E13G20    30.10S
IMPERIAL       CLEAR     72  53  51 E13       30.11R
OGALLALA       CLEAR     75  43  31 E12       30.10F
NORTH PLATTE   CLEAR     68  50  52 E7        30.11S
MCCOOK         PTCLDY    72  58  61 E9        30.09F
LEXINGTON      CLEAR     69  52  55 E8        30.12S
STAPLETON        N/A     69  45  41 E3          N/A
GOTHENBURG       N/A     73  48  41 E6          N/A
CALLAWAY         N/A     72  47  40 E8          N/A
$$

...OBSERVATIONS IN CENTRAL LINCOLN COUNTY AREA...

CITY           SKY/WX    TMP DP  RH WIND       PRES   REMARKS
N.P. AIRPORT   CLEAR     68  50  52 E7        30.11S
N.P. DOWNTOWN    N/A     73  48  41 E3G12       N/A
N.P. SOUTHEAST   N/A     72  48  42 CALM        N/A
N.P. HILLCREST   N/A     70  47  43 E12         N/A
$$

...SOME OBSERVATIONS FROM AROUND THE REGION...

CITY           SKY/WX    TMP DP  RH WIND       PRES   REMARKS
DENVER         CLOUDY    79  46  31 E17       30.10F
LIMON          CLOUDY    76  47  35 SE15      30.15R
ASPEN          CLOUDY    73  31  21 SE12      30.25S
LARAMIE        CLEAR     72  38  29 SE18G24   30.20F
CASPER         CLEAR     79  42  26 E12       30.01F
CHEYENNE       CLEAR     74  45  35 SE17      30.16S
SCOTTSBLUFF    CLEAR     78  43  28 SE15      30.05F
GRAND ISLAND   CLOUDY    66  54  65 E7        30.13R
OMAHA          PTCLDY    70  51  51 NE6       30.11R
SIOUX FALLS    PTCLDY    62  47  57 N3        30.13F
PIERRE         CLEAR     66  40  38 SE9       30.07F
RAPID CITY     CLEAR     74  40  29 SE17      30.02F
BISMARCK       CLEAR     70  44  39 SE10      30.02F
KANSAS CITY    PTCLDY    64  60  87 SE7       30.10F
HILL CITY      CLEAR     76  62  62 NE12      30.07S
WICHITA        MOCLDY    79  61  53 VRB5      30.00R
DODGE CITY     PTCLDY    77  62  59 S7        30.04F
OKLAHOMA CITY  PTCLDY    79  53  40 SE10      30.03R
DALLAS         CLOUDY    82  70  66 SE7       30.01R
AMARILLO       CLEAR     76  58  53 S9        30.12R
$$




USA.gov is the U.S. government's official web portal to all federal, state and local government web resources and services.